User: anonymous   Login
Location: Unspecified
(0.0000°N, 0.0000°E)
Time: 22:21:38
(UTC+00:00)
Language:

SJ 16-02 - Orbit

View from above orbital plane
View from above orbital plane
View from above satellite
View from above satellite

Ground track
Ground track

The orbit is defined by the following mean orbital elements,

1 41634U          26145.63668279 +.00000000 +00000-0 +76087-4 0 00008
2 41634  75.0032 321.6618 0006922  90.1015 270.0967 14.93508015    06
Epoch (UTC): 25 May 2026 15:16:49
Eccentricity: 0.0006922
inclination: 75.0032°
perigee height: 582 km
apogee height: 592 km
right ascension of ascending node: 321.6618°
argument of perigee: 90.1015°
revolutions per day: 14.93508015
mean anomaly at epoch: 270.0967°

The dashed part of the orbit path shows where the satellite is in the earth's shadow,  

DLR